TimeEDT,TemperatureF,Dew PointF,Humidity,Sea Level PressureIn,VisibilityMPH,Wind Direction,Wind SpeedMPH,Gust SpeedMPH,PrecipitationIn,Events,Conditions,WindDirDegrees,DateUTC
12:52 AM,70.0,60.1,71,30.22,10.0,ENE,3.5,-,N/A,,Overcast,70,2013-08-18 04:52:00
1:52 AM,70.0,61.0,73,30.22,10.0,ENE,4.6,-,N/A,,Overcast,60,2013-08-18 05:52:00
2:52 AM,69.1,61.0,75,30.21,10.0,NNE,4.6,-,N/A,,Overcast,30,2013-08-18 06:52:00
3:52 AM,68.0,61.0,78,30.20,10.0,NE,4.6,-,N/A,,Overcast,50,2013-08-18 07:52:00
4:52 AM,66.9,62.1,84,30.21,10.0,NNE,4.6,-,0.01,Rain,Light Rain,30,2013-08-18 08:52:00
5:52 AM,66.9,63.0,87,30.21,10.0,North,5.8,-,0.01,Rain,Light Rain,360,2013-08-18 09:52:00
6:52 AM,66.0,63.0,90,30.22,10.0,North,4.6,-,0.02,Rain,Light Rain,10,2013-08-18 10:52:00
7:52 AM,66.0,63.0,90,30.23,10.0,NE,4.6,-,0.00,,Overcast,40,2013-08-18 11:52:00
8:52 AM,66.9,63.0,87,30.23,10.0,Calm,Calm,-,0.00,,Overcast,0,2013-08-18 12:52:00
9:13 AM,68.0,62.6,83,30.24,10.0,North,4.6,-,0.00,Rain,Light Rain,360,2013-08-18 13:13:00
9:52 AM,69.1,63.0,81,30.25,10.0,North,4.6,-,0.00,Rain,Light Rain,10,2013-08-18 13:52:00
10:52 AM,69.1,62.1,78,30.25,10.0,NNE,8.1,-,0.00,Rain,Light Rain,20,2013-08-18 14:52:00
11:52 AM,69.1,61.0,75,30.25,10.0,North,5.8,-,0.02,Rain,Light Rain,10,2013-08-18 15:52:00
12:52 PM,70.0,62.1,76,30.23,10.0,NNE,3.5,-,0.00,Rain,Light Rain,20,2013-08-18 16:52:00
1:52 PM,71.1,60.1,68,30.21,10.0,ENE,5.8,-,0.00,,Overcast,70,2013-08-18 17:52:00
2:52 PM,71.1,57.9,63,30.21,10.0,ENE,3.5,-,N/A,,Overcast,60,2013-08-18 18:52:00
3:20 PM,71.6,59.0,64,30.21,10.0,Calm,Calm,-,N/A,,Overcast,0,2013-08-18 19:20:00
3:52 PM,70.0,61.0,73,30.19,10.0,WNW,4.6,-,N/A,,Overcast,300,2013-08-18 19:52:00
4:52 PM,70.0,60.1,71,30.20,10.0,Variable,5.8,-,N/A,,Overcast,0,2013-08-18 20:52:00
5:52 PM,68.0,61.0,78,30.20,10.0,NW,6.9,-,N/A,,Overcast,310,2013-08-18 21:52:00
6:52 PM,69.1,61.0,75,30.19,10.0,North,3.5,-,N/A,,Overcast,350,2013-08-18 22:52:00
7:26 PM,69.8,60.8,73,30.19,10.0,North,3.5,-,N/A,,Overcast,10,2013-08-18 23:26:00
7:52 PM,68.0,61.0,78,30.19,10.0,WNW,4.6,-,N/A,,Mostly Cloudy,300,2013-08-18 23:52:00
8:52 PM,66.9,61.0,81,30.19,10.0,WNW,5.8,-,N/A,,Mostly Cloudy,300,2013-08-19 00:52:00
9:52 PM,64.9,61.0,87,30.20,10.0,Calm,Calm,-,N/A,,Mostly Cloudy,0,2013-08-19 01:52:00
10:52 PM,64.0,60.1,87,30.20,10.0,Calm,Calm,-,N/A,,Mostly Cloudy,0,2013-08-19 02:52:00
11:52 PM,62.1,60.1,93,30.19,10.0,Calm,Calm,-,N/A,,Mostly Cloudy,0,2013-08-19 03:52:00